Location: ??????
(38.1303°N, 24.0039°E)
Time: 11:06:28
(UTC+00:00)

Cosmos 1782 - Pass Details

Date: 20 June 2021
Orbit: 537 x 550 km, 82.5° (Epoch: 03 August)

Event Time Altitude Azimuth Distance (km) Brightness Sun altitude
Rises 00:36:38 0° 1° (N) 2,717 7.3 -21.2°
Reaches altitude 10° 00:38:55 10° 9° (N) 1,822 6.4 -20.9°
Maximum altitude 00:42:40 38° 79° (E) 842 4.1 -20.5°
Enters shadow 00:45:12 18° 140° (SE) 1,377 4.7 -20.3°
